Temp
-18 -18 -18 -16 -16 -14 -14 -14 -14 -13 -13 -13 -12 -11 -12 -11 -10 -11 -10 -10 -10 -10 -11 -11 -11 -11 -11 -11 -11 -11 -11 -11 -10 -10 -11 -11 -11 -11 -10 -10 -10 -10 -11 -11
-20 -20 -19 -18 -17 -16 -15 -15 -14 -14 -13 -13 -12 -11 -12 -11 -10 -11 -10 -10 -10 -10 -10 -11 -11 -11 -11 -11 -10 -10 -10 -11 -10 -10 -10 -11 -11 -11 -10 -11 -11 -11 -11 -11
-22 -21 -21 -19 -17 -16 -15 -15 -15 -14 -14 -13 -12 -11 -12 -12 -11 -11 -10 -10 -10 -10 -10 -11 -11 -11 -10 -10 -10 -10 -10 -11 -11 -11 -11 -11 -11 -11 -11 -11 -11 -11 -11 -11
-22 -22 -21 -19 -17 -16 -15 -15 -15 -14 -14 -13 -12 -12 -12 -12 -11 -11 -10 -10 -10 -10 -10 -10 -10 -10 -10 -10 -10 -10 -10 -10 -10 -11 -11 -11 -11 -11 -11 -11 -11 -11 -11 -11
-21 -21 -20 -19 -16 -16 -15 -14 -15 -14 -14 -13 -12 -12 -12 -11 -11 -11 -11 -10 -10 -10 -10 -10 -10 -10 -10 -10 -10 -10 -10 -11 -11 -11 -11 -11 -11 -12 -12 -12 -12 -11 -11 -12
-20 -19 -19 -17 -17 -16 -15 -15 -14 -14 -14 -13 -13 -12 -12 -12 -12 -11 -11 -10 -10 -10 -10 -10 -10 -10 -10 -10 -10 -10 -11 -11 -11 -12 -12 -12 -12 -12 -12 -12 -12 -12 -12 -12
-19 -19 -18 -18 -16 -15 -14 -14 -14 -14 -14 -13 -13 -12 -13 -12 -12 -11 -11 -11 -10 -10 -10 -10 -10 -10 -10 -10 -10 -11 -11 -12 -12 -12 -12 -12 -12 -12 -12 -12 -12 -12 -12 -12
-18 -18 -17 -17 -16 -14 -14 -14 -13 -14 -13 -13 -13 -12 -12 -12 -12 -12 -12 -11 -10 -10 -10 -10 -10 -10 -10 -10 -11 -11 -11 -12 -12 -12 -12 -12 -12 -12 -12 -12 -12 -12 -12 -12
-17 -16 -16 -16 -15 -14 -14 -14 -14 -14 -13 -13 -12 -13 -12 -12 -12 -12 -12 -11 -11 -10 -10 -10 -10 -10 -10 -11 -11 -11 -12 -12 -12 -12 -12 -12 -12 -12 -12 -12 -12 -12 -12 -12
-17 -16 -16 -15 -15 -15 -14 -14 -14 -14 -13 -13 -13 -13 -13 -12 -12 -12 -12 -11 -11 -10 -10 -10 -10 -10 -11 -11 -11 -12 -12 -12 -13 -13 -12 -12 -13 -13 -13 -12 -12 -12 -12 -12
-17 -16 -15 -15 -15 -14 -14 -14 -14 -14 -13 -14 -14 -13 -12 -12 -12 -12 -11 -11 -11 -11 -11 -10 -11 -11 -11 -12 -12 -12 -13 -13 -12 -12 -13 -13 -13 -13 -13 -13 -13 -13 -13 -13
-16 -15 -14 -14 -14 -15 -14 -15 -14 -14 -13 -13 -12 -13 -13 -13 -12 -12 -12 -11 -11 -11 -11 -11 -11 -11 -12 -12 -13 -13 -13 -13 -13 -13 -13 -13 -13 -13 -13 -13 -13 -13 -13 -13
-16 -15 -15 -15 -14 -15 -15 -14 -14 -14 -13 -13 -13 -13 -13 -13 -13 -12 -12 -12 -11 -11 -11 -12 -12 -12 -13 -13 -13 -13 -13 -13 -13 -13 -13 -13 -13 -13 -13 -13 -13 -13 -14 -14
-15 -15 -15 -15 -14 -14 -14 -14 -14 -14 -13 -13 -13 -13 -12 -13 -13 -13 -12 -11 -11 -11 -12 -12 -13 -13 -13 -13 -13 -13 -13 -13 -13 -14 -13 -13 -14 -14 -14 -14 -14 -14 -14 -14
-15 -15 -15 -15 -14 -15 -15 -15 -15 -14 -14 -13 -13 -13 -13 -14 -13 -13 -12 -12 -12 -12 -12 -13 -13 -13 -13 -13 -13 -13 -14 -14 -14 -14 -14 -14 -14 -14 -14 -14 -14 -14 -15 -15
-15 -15 -15 -15 -15 -15 -15 -15 -15 -14 -14 -13 -13 -14 -14 -13 -13 -13 -12 -12 -12 -13 -13 -13 -13 -13 -13 -13 -13 -14 -14 -14 -14 -14 -14 -14 -14 -14 -15 -14 -14 -15 -15 -16
-14 -14 -15 -15 -15 -15 -14 -14 -14 -14 -13 -13 -12 -13 -14 -14 -13 -13 -13 -13 -13 -13 -13 -13 -13 -13 -14 -14 -14 -14 -14 -14 -14 -14 -15 -15 -15 -15 -15 -15 -15 -16 -17 -17
-15 -15 -15 -15 -15 -14 -14 -14 -14 -14 -13 -13 -13 -13 -13 -13 -13 -13 -13 -13 -13 -13 -13 -13 -14 -14 -14 -14 -14 -14 -15 -14 -15 -15 -15 -15 -15 -15 -16 -16 -16 -17 -17 -17
-15 -15 -15 -15 -15 -14 -14 -14 -14 -14 -14 -13 -13 -13 -13 -13 -14 -13 -13 -13 -13 -13 -14 -14 -14 -14 -15 -15 -15 -15 -15 -15 -15 -15 -15 -15 -16 -16 -16 -17 -17 -17 -17 -18
-16 -16 -15 -15 -15 -15 -15 -14 -14 -14 -14 -14 -14 -14 -14 -14 -13 -13 -13 -13 -14 -14 -14 -14 -15 -15 -15 -15 -15 -15 -15 -15 -15 -15 -16 -16 -16 -16 -17 -17 -17 -17 -18 -18
-15 -15 -15 -15 -15 -15 -15 -15 -15 -14 -14 -15 -14 -14 -14 -14 -14 -14 -14 -14 -14 -14 -14 -15 -15 -15 -15 -15 -15 -15 -15 -15 -16 -16 -16 -16 -16 -16 -17 -17 -18 -18 -18 -18
-16 -16 -15 -15 -15 -15 -15 -15 -15 -15 -15 -15 -15 -15 -15 -14 -14 -14 -14 -14 -15 -15 -15 -15 -15 -15 -15 -15 -15 -15 -15 -16 -16 -16 -16 -16 -17 -17 -17 -18 -18 -18 -19 -19
-15 -15 -15 -15 -16 -16 -15 -15 -15 -15 -15 -15 -15 -15 -15 -15 -15 -15 -15 -14 -14 -15 -15 -15 -15 -15 -15 -15 -15 -16 -16 -16 -16 -16 -17 -17 -17 -17 -18 -18 -18 -19 -19 -20
-15 -16 -15 -16 -15 -15 -15 -15 -15 -16 -16 -15 -15 -15 -15 -15 -15 -15 -15 -15 -15 -15 -15 -15 -15 -15 -15 -15 -16 -16 -16 -16 -17 -17 -17 -17 -17 -18 -18 -19 -19 -19 -20 -20
-16 -15 -15 -15 -15 -15 -16 -16 -16 -15 -15 -15 -15 -15 -15 -15 -15 -15 -15 -15 -15 -15 -15 -15 -15 -15 -16 -16 -16 -16 -16 -17 -17 -17 -17 -17 -17 -18 -19 -19 -19 -19 -20 -21
-15 -15 -15 -15 -15 -15 -15 -15 -15 -15 -15 -15 -15 -15 -15 -15 -15 -15 -15 -15 -15 -15 -15 -15 -16 -16 -16 -16 -16 -16 -17 -17 -17 -17 -17 -17 -18 -18 -18 -18 -19 -20 -21 -23
Height
5642 5641 5648 5668 5680 5694 5702 5708 5717 5727 5732 5736 5742 5748 5751 5755 5758 5762 5765 5768 5770 5771 5772 5774 5776 5778 5780 5782 5783 5783 5783 5782 5780 5778 5776 5775 5773 5771 5769 5766 5763 5760 5756 5753
5617 5617 5643 5663 5672 5680 5692 5700 5712 5721 5723 5731 5736 5741 5746 5749 5752 5757 5760 5762 5765 5766 5767 5769 5771 5774 5776 5777 5778 5777 5776 5776 5774 5773 5771 5770 5768 5766 5764 5760 5756 5753 5749 5745
5602 5613 5632 5643 5657 5670 5683 5694 5708 5715 5716 5727 5730 5736 5741 5744 5744 5751 5754 5757 5760 5761 5762 5764 5766 5769 5771 5773 5773 5771 5770 5770 5767 5767 5766 5764 5762 5760 5757 5753 5750 5746 5743 5739
5595 5606 5614 5631 5647 5665 5678 5693 5701 5706 5712 5722 5724 5732 5732 5735 5740 5745 5748 5752 5754 5756 5757 5759 5762 5765 5767 5768 5767 5765 5764 5763 5763 5761 5760 5758 5755 5752 5749 5745 5741 5738 5735 5732
5594 5603 5612 5622 5642 5662 5676 5688 5695 5700 5709 5712 5719 5725 5730 5730 5734 5739 5743 5746 5749 5751 5753 5755 5758 5760 5762 5762 5761 5759 5759 5758 5757 5755 5753 5750 5747 5745 5741 5738 5734 5731 5727 5724
5592 5603 5612 5629 5641 5658 5673 5684 5692 5696 5700 5708 5715 5721 5724 5725 5728 5733 5737 5740 5743 5746 5748 5750 5753 5756 5757 5756 5755 5754 5753 5752 5750 5748 5746 5743 5740 5737 5734 5731 5727 5723 5720 5716
5588 5597 5608 5620 5630 5652 5661 5674 5682 5685 5694 5706 5708 5714 5720 5718 5723 5728 5732 5735 5738 5740 5742 5745 5748 5750 5750 5750 5749 5747 5746 5744 5743 5741 5738 5735 5732 5729 5726 5723 5719 5715 5711 5707
5589 5599 5607 5624 5632 5642 5659 5670 5675 5679 5688 5701 5706 5709 5712 5716 5719 5723 5727 5730 5733 5735 5737 5739 5741 5743 5743 5743 5742 5740 5739 5737 5735 5733 5731 5728 5725 5721 5718 5714 5710 5706 5702 5697
5594 5604 5614 5625 5634 5644 5653 5658 5668 5678 5688 5696 5703 5705 5710 5712 5716 5719 5723 5726 5728 5729 5732 5734 5735 5736 5737 5736 5735 5734 5732 5730 5728 5726 5723 5720 5717 5713 5710 5706 5702 5697 5692 5686
5600 5610 5619 5621 5635 5643 5652 5660 5668 5677 5688 5693 5697 5701 5703 5709 5713 5717 5719 5721 5724 5725 5726 5728 5728 5729 5729 5729 5728 5727 5725 5723 5721 5718 5716 5712 5709 5705 5702 5697 5693 5687 5681 5675
5600 5612 5617 5618 5631 5640 5648 5655 5667 5676 5684 5690 5696 5699 5701 5706 5708 5712 5714 5716 5718 5719 5721 5722 5722 5722 5722 5721 5720 5719 5718 5716 5713 5711 5707 5704 5700 5697 5692 5687 5682 5676 5669 5662
5597 5607 5614 5623 5632 5642 5648 5658 5667 5675 5683 5687 5693 5694 5698 5702 5705 5708 5709 5711 5713 5714 5714 5715 5715 5715 5715 5714 5713 5712 5710 5708 5705 5702 5699 5696 5692 5687 5682 5676 5670 5663 5655 5647
5602 5608 5617 5627 5637 5641 5649 5658 5666 5673 5678 5684 5689 5692 5696 5698 5700 5701 5703 5706 5707 5708 5708 5708 5709 5708 5708 5707 5706 5704 5702 5699 5697 5694 5691 5686 5682 5676 5670 5664 5657 5649 5641 5632
5609 5615 5621 5632 5640 5648 5654 5659 5665 5671 5674 5681 5684 5686 5692 5692 5693 5697 5699 5700 5701 5701 5701 5701 5702 5702 5701 5700 5699 5696 5694 5692 5689 5685 5681 5676 5670 5664 5658 5651 5644 5635 5627 5618
5613 5618 5625 5630 5638 5645 5651 5656 5659 5664 5673 5675 5680 5683 5685 5686 5690 5692 5694 5695 5695 5695 5695 5696 5696 5695 5694 5693 5691 5689 5686 5683 5680 5676 5671 5666 5659 5653 5646 5639 5630 5621 5612 5603
5616 5621 5627 5631 5637 5642 5646 5651 5656 5661 5667 5670 5675 5679 5680 5682 5684 5686 5687 5688 5689 5689 5689 5689 5689 5688 5687 5685 5683 5680 5678 5675 5671 5667 5661 5655 5649 5642 5634 5625 5616 5607 5597 5588
5617 5621 5626 5629 5634 5638 5643 5649 5653 5661 5665 5667 5672 5677 5675 5678 5678 5680 5682 5683 5683 5684 5684 5683 5682 5681 5679 5677 5675 5673 5670 5666 5662 5657 5651 5644 5637 5629 5621 5612 5602 5592 5583 5574
5616 5620 5623 5626 5631 5634 5639 5644 5649 5653 5658 5662 5667 5669 5670 5672 5673 5675 5676 5676 5677 5677 5677 5676 5675 5673 5672 5669 5667 5664 5661 5657 5652 5646 5639 5632 5625 5616 5607 5597 5587 5578 5569 5559
5614 5617 5621 5624 5628 5632 5637 5641 5644 5647 5654 5656 5660 5661 5664 5666 5668 5669 5670 5670 5670 5669 5669 5668 5667 5665 5663 5661 5658 5655 5651 5647 5641 5634 5628 5621 5612 5603 5593 5583 5574 5565 5555 5545
5611 5614 5618 5621 5625 5629 5633 5636 5639 5642 5648 5651 5654 5656 5659 5660 5661 5663 5663 5662 5663 5662 5661 5660 5658 5657 5655 5652 5649 5646 5642 5636 5630 5623 5616 5608 5600 5589 5580 5571 5562 5552 5541 5529
5609 5612 5616 5619 5622 5627 5631 5632 5634 5639 5647 5645 5648 5650 5651 5652 5654 5656 5655 5656 5655 5654 5653 5652 5650 5649 5647 5644 5640 5636 5631 5625 5618 5611 5604 5595 5585 5576 5568 5559 5548 5537 5525 5512
5608 5610 5614 5617 5619 5626 5628 5630 5633 5636 5637 5639 5641 5643 5645 5647 5647 5648 5649 5648 5647 5647 5645 5645 5643 5641 5638 5635 5631 5626 5620 5613 5607 5599 5590 5581 5572 5564 5556 5546 5534 5521 5508 5495
5604 5609 5611 5616 5620 5621 5623 5626 5627 5631 5632 5634 5636 5638 5639 5641 5641 5641 5641 5641 5640 5639 5638 5636 5634 5632 5629 5625 5620 5614 5608 5602 5594 5586 5577 5569 5560 5551 5540 5530 5517 5504 5489 5473
5602 5605 5607 5611 5616 5617 5619 5622 5624 5626 5628 5629 5631 5633 5634 5634 5635 5635 5634 5634 5632 5631 5630 5628 5625 5622 5618 5613 5608 5603 5596 5589 5581 5573 5564 5557 5548 5537 5525 5513 5500 5485 5469 5455
5599 5601 5605 5608 5611 5613 5616 5618 5620 5622 5624 5624 5625 5627 5627 5627 5627 5627 5626 5625 5624 5623 5620 5618 5615 5611 5607 5602 5597 5590 5583 5576 5568 5561 5553 5544 5534 5522 5511 5497 5482 5468 5451 5433
5595 5599 5602 5605 5607 5610 5613 5615 5616 5617 5618 5619 5620 5621 5621 5620 5620 5619 5618 5617 5615 5613 5611 5608 5604 5600 5596 5590 5584 5578 5571 5564 5556 5549 5540 5530 5519 5506 5493 5481 5469 5450 5433 5418
Wind_Speed
55 61 60 67 60 60 54 57 57 52 49 47 42 40 39 39 35 29 27 29 27 27 29 34 33 30 30 31 30 31 32 34 37 32 27 27 28 32 34 36 37 36 34 34
60 69 68 58 61 61 56 58 52 49 52 45 41 41 37 38 36 31 28 28 27 27 30 34 32 31 30 30 32 32 34 36 33 28 29 31 33 34 37 38 37 37 36 35
45 45 49 64 64 58 57 58 52 51 52 43 43 39 35 34 38 31 30 31 29 28 28 32 33 33 32 32 32 33 36 32 21 27 31 33 34 36 37 37 37 36 37 38
42 39 51 57 63 57 56 53 47 54 50 42 43 37 37 36 35 33 30 31 30 29 29 30 31 30 30 30 32 34 33 30 32 33 33 34 35 37 38 39 37 37 38 39
34 39 49 56 56 53 47 37 50 53 47 44 42 38 30 34 34 32 29 31 31 29 29 31 30 30 29 30 32 30 30 30 31 32 34 35 36 37 37 37 37 39 39 40
36 36 43 56 56 56 51 48 48 48 50 44 38 33 32 32 35 33 30 29 29 29 30 31 31 31 30 32 31 29 29 30 32 34 35 36 38 37 37 37 38 39 40 41
25 40 52 56 54 54 48 51 52 48 48 40 38 34 27 35 32 31 29 29 29 30 32 32 32 31 32 32 30 29 30 32 34 35 36 37 37 37 36 37 38 40 41 43
34 51 52 55 64 48 53 55 45 48 46 38 31 31 32 30 29 31 26 28 28 30 31 32 33 34 34 33 32 31 32 33 35 36 37 37 37 36 36 37 40 41 44 48
45 48 50 48 52 44 54 36 46 45 41 35 33 29 28 29 29 27 28 25 29 29 29 31 33 33 32 31 31 32 33 35 36 36 36 36 35 35 37 39 42 45 48 51
49 44 48 41 51 51 47 46 43 42 37 30 30 28 29 26 26 27 26 28 31 31 30 28 30 31 32 33 33 33 34 33 33 34 34 34 34 37 40 42 46 48 51 54
26 43 49 31 58 46 48 44 41 39 37 28 22 25 26 23 25 24 24 27 28 28 27 30 31 32 32 32 33 32 30 30 32 32 33 35 37 40 43 46 49 52 55 59
25 16 35 51 50 50 26 40 38 35 34 32 27 26 24 21 20 20 24 27 28 28 30 31 32 32 31 30 29 29 30 31 32 32 34 38 41 43 46 50 53 57 60 63
18 22 31 43 40 39 44 32 33 34 33 33 30 28 23 19 22 23 22 23 25 27 29 29 28 27 26 27 29 30 31 32 33 35 39 42 44 46 50 53 58 61 65 68
27 26 29 36 30 32 31 34 34 33 34 35 33 29 26 26 26 23 22 24 26 27 26 25 25 26 27 30 31 32 32 34 36 40 42 44 47 51 54 59 63 67 69 71
29 33 36 35 33 36 33 29 32 37 25 26 27 28 28 28 25 24 24 27 28 28 27 26 28 29 30 32 33 33 35 37 39 41 43 47 51 55 60 64 68 70 72 71
25 24 26 27 27 29 34 35 33 31 28 28 27 26 25 27 28 26 26 28 28 27 26 27 29 31 33 34 34 36 37 38 40 43 47 51 56 60 65 69 72 73 70 70
25 27 28 29 29 31 34 34 36 31 31 31 27 26 35 30 31 30 27 27 26 26 28 30 33 34 34 34 36 37 38 39 43 47 51 55 61 66 70 73 72 69 68 69
20 23 25 30 30 30 31 31 33 34 35 35 31 32 33 32 31 29 27 27 26 28 30 33 35 35 36 37 37 36 39 42 47 50 55 60 66 70 73 71 67 67 67 69
21 21 22 28 29 29 28 28 31 33 33 38 36 35 34 33 30 29 28 27 29 31 33 34 35 37 36 36 36 38 42 46 50 55 60 65 69 73 68 64 64 66 69 73
26 23 21 22 23 22 22 24 29 31 26 27 26 26 27 29 32 31 29 30 31 31 33 37 39 37 37 35 39 42 46 50 55 60 65 69 72 63 60 61 65 69 74 79
24 21 19 21 17 15 16 20 23 25 22 24 25 26 27 31 30 28 30 31 33 33 33 33 33 32 37 39 42 46 50 55 60 65 68 68 59 58 59 64 70 75 80 85
24 22 21 22 23 19 18 22 22 20 24 26 24 24 24 25 27 28 29 32 36 36 31 32 35 37 38 42 46 51 55 60 64 67 62 56 55 58 63 69 76 82 86 89
31 29 23 26 19 19 18 21 25 25 26 27 27 27 28 29 30 31 29 31 30 29 31 34 36 38 42 47 50 55 60 63 65 56 53 54 57 62 67 73 80 86 90 94
28 24 24 25 20 21 22 20 19 20 20 21 24 28 27 25 26 29 30 30 30 31 33 36 38 43 47 50 55 59 62 59 52 51 53 56 60 66 70 77 85 90 95 100
25 24 24 19 18 16 17 18 17 17 18 19 20 23 25 26 27 29 30 31 32 34 36 40 44 47 50 54 57 58 51 49 50 52 55 61 67 70 76 83 91 94 101 99
16 15 12 12 13 13 15 16 16 17 18 20 22 24 26 27 29 31 32 34 36 39 41 43 46 49 52 55 51 47 47 49 52 55 61 67 72 76 83 89 92 98 100 91
Wind_Direction
248 240 230 226 224 225 221 223 224 223 227 228 230 228 232 237 239 235 236 236 239 235 234 233 236 239 247 251 259 269 275 277 285 282 280 281 283 285 287 292 295 297 297 298
248 242 236 229 218 215 219 220 221 223 226 226 228 230 233 235 239 235 235 235 237 237 237 236 238 243 248 253 260 269 276 281 280 278 277 281 284 287 291 293 295 296 296 298
235 231 216 217 210 207 212 216 218 220 230 223 226 230 234 235 240 235 234 235 239 240 243 240 241 244 249 254 263 271 277 273 265 267 279 284 286 288 290 295 298 299 304 304
226 211 201 207 202 203 208 208 211 221 222 222 224 230 232 234 239 237 236 234 239 242 243 242 242 244 250 259 269 275 274 269 268 278 285 286 288 290 295 301 302 303 302 299
217 201 201 198 184 199 199 190 215 220 217 222 223 229 235 234 236 238 236 232 238 242 239 240 243 250 258 269 276 273 272 273 278 283 285 286 290 296 299 300 300 298 298 298
183 191 197 186 188 200 202 208 216 220 218 219 225 230 227 236 234 235 235 231 236 240 240 243 250 257 264 272 274 275 276 278 280 282 285 289 294 297 299 299 297 295 295 297
184 180 190 186 192 186 195 203 207 208 213 214 221 228 215 231 236 235 233 232 236 239 243 248 256 262 266 269 272 272 274 277 281 284 288 291 295 298 298 296 296 298 300 301
180 177 184 179 194 182 191 205 210 203 209 213 220 227 226 232 238 238 233 233 238 245 246 251 257 261 265 266 267 270 274 278 282 285 289 293 296 296 295 296 297 298 300 302
172 175 178 191 203 192 188 190 200 201 205 217 220 228 232 228 231 233 233 234 240 246 252 255 259 265 268 270 271 272 276 279 282 287 290 294 294 295 295 295 297 299 301 303
158 177 187 202 184 197 199 203 196 200 205 210 220 225 233 229 233 234 234 236 244 250 253 257 261 265 268 270 274 275 275 280 284 288 292 293 294 294 295 298 300 303 305 307
167 171 187 179 191 187 194 198 199 200 208 206 216 225 234 226 229 233 237 240 242 247 253 257 262 267 272 275 275 276 280 284 286 290 293 293 293 296 299 302 306 308 310 310
123 136 174 195 193 199 198 192 195 204 210 215 220 226 227 229 236 240 241 244 248 252 257 263 267 272 275 274 275 279 283 287 291 293 293 294 297 301 305 308 311 312 311 310
128 134 183 182 196 212 212 198 197 208 214 214 223 235 228 237 241 245 246 247 249 253 258 263 268 270 273 275 279 284 288 291 291 293 295 298 302 307 310 312 313 312 311 311
166 162 177 189 195 202 209 219 210 217 222 221 221 233 230 246 250 253 257 259 259 260 265 268 269 272 274 279 284 288 289 290 292 295 299 304 308 311 313 313 312 312 312 310
179 179 190 202 207 208 215 221 213 216 222 220 225 235 239 245 260 264 261 259 261 263 264 265 269 273 277 281 285 287 288 290 293 298 304 308 311 313 313 312 313 313 312 311
201 204 207 214 214 216 218 221 221 233 229 231 232 234 240 260 260 258 254 254 260 265 263 265 270 275 278 282 284 285 289 293 298 304 307 310 312 312 313 314 313 312 312 312
209 219 216 220 224 226 225 228 230 224 224 235 234 247 246 245 259 260 262 263 265 265 266 270 273 276 279 281 284 289 293 298 302 304 308 311 311 312 313 313 313 312 313 313
213 214 217 222 223 226 228 226 228 230 228 234 238 244 244 246 255 260 262 265 268 269 270 271 274 277 280 282 288 292 296 298 303 307 309 310 311 311 313 313 313 315 315 314
202 215 221 225 228 230 229 227 229 235 237 239 243 247 248 251 251 258 264 268 269 270 272 276 278 277 279 284 290 294 296 300 305 307 308 308 310 312 313 315 316 316 316 315
203 206 210 216 224 228 230 234 233 236 238 244 249 249 244 248 253 255 263 266 270 274 276 275 274 274 281 292 291 294 298 303 306 307 307 309 310 312 315 317 317 317 318 319
213 207 210 209 216 221 219 226 230 232 223 229 230 234 239 245 254 259 265 271 274 276 277 278 282 289 288 288 292 297 301 304 305 305 307 309 311 314 316 317 320 322 321 320
227 224 233 222 246 226 238 231 233 231 220 222 229 237 246 256 262 269 277 279 274 275 278 282 284 284 287 292 297 300 302 302 303 305 307 310 313 315 319 322 324 324 322 321
223 227 231 229 231 244 226 238 237 234 235 237 240 244 253 261 270 274 279 282 279 277 277 278 281 288 293 295 299 301 300 302 304 305 308 312 315 319 322 326 327 327 326 325
222 228 224 226 235 234 241 247 241 236 247 251 252 256 263 266 268 271 273 274 276 278 280 285 291 293 296 298 299 299 301 303 304 307 311 315 318 321 322 325 325 326 327 325
222 222 225 228 223 231 231 231 237 247 256 262 264 266 268 270 270 274 274 276 281 285 289 291 291 294 297 297 298 300 301 303 307 311 314 317 320 321 322 324 325 326 326 324
206 199 221 212 229 247 250 246 247 253 260 264 268 271 273 275 277 278 278 281 284 287 287 289 293 295 295 298 300 301 304 308 311 313 316 319 321 322 323 323 323 325 325 323